EW5385 Weather Reports


time (UTC)temp
C
wind
direction
speed
KPH
gust
KPH
rain 1hr
cm
rain 24hr
cm
rain mn
cm
humidity
%
barometer
mb
20260505111520 20 91 0.0 0.0 0.00 0.00 0.00 1 1014.1
20260505101518 21 91 0.0 0.0 0.00 0.00 0.00 1 1013.8
20260505100002 21 91 0.0 0.0 0.00 0.00 0.00 1 1013.5
20260505094557 21 67 0.0 0.0 0.00 0.00 0.00 1 1013.4
20260505093055 21 67 0.0 0.0 0.00 0.00 0.00 3 1013.6
20260505091549 21 67 0.0 0.0 0.00 0.00 0.00 6 1013.3
20260505090047 21 67 0.0 0.0 0.00 0.00 0.00 12 1013.3
20260505084540 21 76 0.0 0.0 0.00 0.00 0.00 13 1013.1
20260505083036 21 85 0.0 0.0 0.00 0.00 0.00 20 1012.6
20260505081538 22 79 0.0 0.0 0.00 0.00 0.00 28 1012.3
20260505080037 22 79 0.0 0.0 0.00 0.00 0.00 34 1012.2
20260505074521 22 62 0.0 0.0 0.00 0.00 0.00 40 1012.2
20260505073029 22 31 0.0 0.0 0.00 0.00 0.00 45 1012.1
20260505071518 22 53 0.0 0.0 0.00 0.00 0.00 50 1011.9
20260505070009 22 49 0.0 9.7 0.00 0.00 0.00 55 1011.8
20260505064513 23 20 0.0 0.0 0.00 0.00 0.00 60 1011.6
20260505063059 23 25 0.0 9.7 0.00 0.00 0.00 65 1011.8
20260505061559 23 84 0.0 0.0 0.00 0.00 0.00 69 1011.5
20260505060051 23 51 0.0 0.0 0.00 0.00 0.00 69 1011.5
20260505054607 24 43 0.0 0.0 0.00 0.00 0.00 69 1011.3
20260505053056 25 48 3.2 14.5 0.00 0.00 0.00 68 1011.3
20260505051538 25 1 3.2 12.9 0.00 0.00 0.00 68 1011.4
20260505041524 26 114 0.0 0.0 0.00 0.00 0.00 64 1010.9
20260505040021 26 132 0.0 0.0 0.00 0.00 0.00 64 1010.9
20260505034516 26 103 0.0 0.0 0.00 0.00 0.00 64 1010.9
20260505033012 26 129 0.0 0.0 0.00 0.00 0.00 65 1010.9
20260505031521 26 273 0.0 0.0 0.00 0.00 0.00 65 1011.0
20260505030004 26 110 0.0 0.0 0.00 0.00 0.00 66 1011.1
20260505024600 26 317 0.0 0.0 0.00 0.00 0.00 66 1011.3
20260505023114 25 206 0.0 0.0 0.00 0.00 0.00 67 1011.9
20260505021549 25 304 0.0 0.0 0.00 0.00 0.00 68 1012.1
20260505020043 25 196 0.0 0.0 0.00 0.00 0.00 67 1012.2
20260505014539 25 223 0.0 0.0 0.00 0.00 0.00 68 1012.4
20260505013035 24 274 0.0 0.0 0.00 0.00 0.00 69 1012.6
20260505011534 24 143 0.0 0.0 0.00 0.00 0.00 69 1012.9
20260505010026 24 165 0.0 0.0 0.00 0.00 0.00 68 1013.3
20260505004540 23 261 0.0 0.0 0.00 0.00 0.00 62 1013.5
20260505003017 22 164 0.0 0.0 0.00 0.00 0.00 59 1013.7
20260505001513 22 219 0.0 0.0 0.00 0.00 0.00 55 1013.9
20260505000013 22 157 0.0 0.0 0.00 0.00 0.00 46 1013.9
20260504234508 21 280 0.0 0.0 0.00 0.00 0.00 26 1014.0
20260504233101 21 224 0.0 0.0 0.00 0.00 0.00 1 1014.2
20260504231555 20 245 0.0 0.0 0.00 0.00 0.00 1 1014.3
20260504230104 20 223 0.0 0.0 0.00 0.00 0.00 1 1014.3
20260504224546 19 257 0.0 9.7 0.00 0.00 0.00 1 1014.3
20260504223042 18 200 0.0 0.0 0.00 0.00 0.00 1 1014.2
20260504221549 18 238 0.0 1.6 0.00 0.00 0.00 1 1014.4
20260504220032 18 229 0.0 0.0 0.00 0.00 0.00 1 1014.2
20260504214528 17 231 0.0 0.0 0.00 0.00 0.00 1 1014.1
20260504213023 17 223 0.0 0.0 0.00 0.00 0.00 1 1014.1
20260504211519 17 219 0.0 0.0 0.00 0.00 0.00 1 1014.0
20260504210018 16 223 0.0 0.0 0.00 0.00 0.00 1 1013.9
20260504204509 16 251 0.0 0.0 0.00 0.00 0.00 1 1013.7
20260504203007 -17 0.0 0.0 0.00 0.00 0.00 1013.6
20260504201602 -17 0.0 0.0 0.00 0.00 0.00 1013.5
20260504200055 -17 0.0 0.0 0.00 0.00 0.00 1013.4
20260504194551 -17 0.0 0.0 0.00 0.00 0.00 1013.1
20260504193047 -17 0.0 0.0 0.00 0.00 0.00 1012.9
20260504191543 -17 0.0 0.0 0.00 0.00 0.00 1012.8
20260504190038 -17 0.0 0.0 0.00 0.00 0.00 1012.7
20260504184534 -17 0.0 0.0 0.00 0.00 0.00 1012.6
20260504183029 -17 0.0 0.0 0.00 0.00 0.00 1012.7
20260504181529 -17 0.0 0.0 0.00 0.00 0.00 1012.5
20260504180021 -17 0.0 0.0 0.00 0.00 0.00 1012.4
20260504174516 -17 0.0 0.0 0.00 0.00 0.00 1012.4
20260504173011 -17 0.0 0.0 0.00 0.00 0.00 1012.5
20260504171507 -17 0.0 0.0 0.00 0.00 0.00 1012.5